FW8665 Weather Reports


Display with metric or nautical units.
time (UTC)temp
F
wind
direction
speed
MPH
gust
MPH
rain 1hr
in
rain 24hr
in
rain mn
in
humidity
%
barometer
mb
20220701051037 106 338 5.0 7.0 0.00 0.00 0.00 19 998.9
20220701050535 105 342 4.0 8.0 0.00 0.00 0.00 19 999.1
20220701050034 105 349 5.0 9.0 0.00 0.00 0.00 19 999.1
20220701045533 105 8 2.0 8.0 0.00 0.00 0.00 19 999.2
20220701045032 105 5 4.0 5.0 0.00 0.00 0.00 20 998.9
20220701044531 105 299 2.0 6.0 0.00 0.00 0.00 19 999.0
20220701044030 104 321 3.0 10.0 0.00 0.00 0.00 19 999.2
20220701043529 104 332 6.0 10.0 0.00 0.00 0.00 19 999.1
20220701043029 104 302 4.0 10.0 0.00 0.00 0.00 21 999.0
20220701042528 104 296 1.0 8.0 0.00 0.00 0.00 20 999.1
20220701042027 103 347 5.0 7.0 0.00 0.00 0.00 20 999.3
20220701041526 103 351 3.0 9.0 0.00 0.00 0.00 20 999.2
20220701041026 103 30 5.0 8.0 0.00 0.00 0.00 20 999.1
20220701040524 103 346 1.0 7.0 0.00 0.00 0.00 20 999.1
20220701040023 102 14 3.0 8.0 0.00 0.00 0.00 20 999.0
20220701035522 102 1 5.0 9.0 0.00 0.00 0.00 20 999.1
20220701035023 102 316 5.0 13.0 0.00 0.00 0.00 20 999.0
20220701034521 102 318 3.0 8.0 0.00 0.00 0.00 21 998.8
20220701034020 101 313 4.0 7.0 0.00 0.00 0.00 21 999.1
20220701033520 101 347 2.0 7.0 0.00 0.00 0.00 21 999.0
20220701033019 101 286 3.0 8.0 0.00 0.00 0.00 21 999.1
20220701032518 101 351 2.0 7.0 0.00 0.00 0.00 22 998.8
20220701032016 101 287 4.0 7.0 0.00 0.00 0.00 21 999.0
20220701031516 100 286 1.0 10.0 0.00 0.00 0.00 21 998.9
20220701031014 100 343 5.0 8.0 0.00 0.00 0.00 21 999.0
20220701030513 100 6 2.0 8.0 0.00 0.00 0.00 22 998.9
20220701030012 100 326 2.0 5.0 0.00 0.00 0.00 22 999.0
20220701025513 100 345 4.0 6.0 0.00 0.00 0.00 22 998.8
20220701025011 100 5 1.0 8.0 0.00 0.00 0.00 21 999.1
20220701024511 100 80 4.0 6.0 0.00 0.00 0.00 21 998.9
20220701024009 100 350 1.0 8.0 0.00 0.00 0.00 22 998.9
20220701023508 100 312 3.0 7.0 0.00 0.00 0.00 22 998.8
20220701023006 100 333 3.0 14.0 0.00 0.00 0.00 21 998.7
20220701022505 99 337 2.0 5.0 0.00 0.00 0.00 22 998.6
20220701022005 99 335 2.0 3.0 0.00 0.00 0.00 22 998.8
20220701021503 100 358 3.0 7.0 0.00 0.00 0.00 22 998.5
20220701021003 100 356 3.0 6.0 0.00 0.00 0.00 22 998.7
20220701020503 100 297 1.0 6.0 0.00 0.00 0.00 21 998.9
20220701020003 99 333 2.0 8.0 0.00 0.00 0.00 21 998.6
20220701015503 99 332 2.0 5.0 0.00 0.00 0.00 22 998.4
20220701015001 100 330 3.0 9.0 0.00 0.00 0.00 21 998.6
20220701014501 100 358 2.0 8.0 0.00 0.00 0.00 21 998.7
20220701013959 100 316 2.0 5.0 0.00 0.00 0.00 22 998.4
20220701013459 100 296 3.0 7.0 0.00 0.00 0.00 22 998.5
20220701012958 100 346 3.0 7.0 0.00 0.00 0.00 22 998.4
20220701012457 100 348 4.0 7.0 0.00 0.00 0.00 22 998.5
20220701011956 100 325 1.0 10.0 0.00 0.00 0.00 22 998.3
20220701011455 100 10 2.0 8.0 0.00 0.00 0.00 22 998.4
20220701010955 100 5 0.0 8.0 0.00 0.00 0.00 22 998.2
20220701010454 100 341 3.0 7.0 0.00 0.00 0.00 22 998.2
20220701005954 100 5 0.0 6.0 0.00 0.00 0.00 22 997.9
20220701005453 100 342 3.0 9.0 0.00 0.00 0.00 22 998.3
20220701004952 101 338 4.0 7.0 0.00 0.00 0.00 21 998.1
20220701004451 101 10 1.0 7.0 0.00 0.00 0.00 22 998.2
20220701003949 101 348 1.0 7.0 0.00 0.00 0.00 21 998.2
20220701003449 101 350 3.0 9.0 0.00 0.00 0.00 21 998.2
20220701002949 101 322 4.0 9.0 0.00 0.00 0.00 21 998.1
20220701002447 101 355 0.0 8.0 0.00 0.00 0.00 22 998.2
20220701001947 101 340 5.0 9.0 0.00 0.00 0.00 22 997.9
20220701001445 101 10 4.0 8.0 0.00 0.00 0.00 21 998.0
20220701000945 101 280 1.0 8.0 0.00 0.00 0.00 21 998.1
20220701000444 102 25 4.0 11.0 0.00 0.00 0.00 21 998.1
20220630235943 102 314 5.0 8.0 0.00 0.00 0.00 21 998.0
20220630235441 102 3 2.0 7.0 0.00 0.00 0.00 20 997.9
20220630234941 102 349 4.0 13.0 0.00 0.00 0.00 20 997.7
20220630234441 102 279 8.0 16.0 0.00 0.00 0.00 20 997.9
20220630233940 102 8 2.0 11.0 0.00 0.00 0.00 21 998.1
20220630233439 102 256 3.0 9.0 0.00 0.00 0.00 21 997.8
20220630232938 102 260 2.0 7.0 0.00 0.00 0.00 21 997.9
20220630232436 102 290 2.0 7.0 0.00 0.00 0.00 21 997.8
20220630231934 102 341 1.0 6.0 0.00 0.00 0.00 21 997.9
20220630231433 102 322 1.0 8.0 0.00 0.00 0.00 21 997.8
20220630230932 102 277 7.0 10.0 0.00 0.00 0.00 21 997.7
20220630230431 102 317 3.0 8.0 0.00 0.00 0.00 21 998.1
20220630225930 102 321 5.0 7.0 0.00 0.00 0.00 21 998.0
20220630225429 102 307 5.0 7.0 0.00 0.00 0.00 21 998.0
20220630224928 102 318 5.0 7.0 0.00 0.00 0.00 21 998.0
20220630224426 102 329 2.0 5.0 0.00 0.00 0.00 21 997.9
20220630223926 103 359 1.0 8.0 0.00 0.00 0.00 21 997.8
20220630223425 103 332 2.0 9.0 0.00 0.00 0.00 21 998.2
20220630222924 103 312 1.0 5.0 0.00 0.00 0.00 21 998.1
20220630222424 103 2 3.0 9.0 0.00 0.00 0.00 21 998.0
20220630221924 103 306 4.0 8.0 0.00 0.00 0.00 21 997.9
20220630221423 103 332 2.0 13.0 0.00 0.00 0.00 21 997.9
20220630220923 103 347 2.0 7.0 0.00 0.00 0.00 21 997.9
20220630220421 104 311 5.0 9.0 0.00 0.00 0.00 20 997.8
20220630215921 104 319 3.0 9.0 0.00 0.00 0.00 20 998.0
20220630215420 104 274 3.0 8.0 0.00 0.00 0.00 20 997.9
20220630214919 104 333 1.0 7.0 0.00 0.00 0.00 20 998.1
20220630214418 104 20 4.0 13.0 0.00 0.00 0.00 20 998.0
20220630213917 105 22 3.0 9.0 0.00 0.00 0.00 20 997.9
20220630213416 105 357 3.0 9.0 0.00 0.00 0.00 19 998.1
20220630212915 105 326 3.0 7.0 0.00 0.00 0.00 20 997.9
20220630212414 105 328 5.0 8.0 0.00 0.00 0.00 19 997.9
20220630211914 105 305 3.0 7.0 0.00 0.00 0.00 19 998.0
20220630211413 105 348 1.0 5.0 0.00 0.00 0.00 19 998.2
20220630210911 105 282 3.0 6.0 0.00 0.00 0.00 19 998.1
20220630210411 106 347 4.0 8.0 0.00 0.00 0.00 19 998.2
20220630205910 106 57 1.0 13.0 0.00 0.00 0.00 19 998.0
20220630205409 106 319 3.0 8.0 0.00 0.00 0.00 19 998.0
20220630204909 106 271 3.0 13.0 0.00 0.00 0.00 19 998.1
20220630204408 106 358 1.0 10.0 0.00 0.00 0.00 18 998.1
20220630203907 106 5 3.0 9.0 0.00 0.00 0.00 19 998.0
20220630203406 106 274 2.0 8.0 0.00 0.00 0.00 19 998.0
20220630202905 106 4 3.0 9.0 0.00 0.00 0.00 18 998.0
20220630202404 106 275 6.0 10.0 0.00 0.00 0.00 18 998.2
20220630201902 106 347 3.0 10.0 0.00 0.00 0.00 18 998.2
20220630201401 106 4 5.0 8.0 0.00 0.00 0.00 19 998.2
20220630200859 106 339 0.0 9.0 0.00 0.00 0.00 19 998.2
20220630200358 106 348 5.0 10.0 0.00 0.00 0.00 18 998.2
20220630195857 107 333 1.0 8.0 0.00 0.00 0.00 18 998.3
20220630195356 107 357 2.0 7.0 0.00 0.00 0.00 18 998.1
20220630194856 107 333 4.0 7.0 0.00 0.00 0.00 18 998.3
20220630194355 107 288 2.0 8.0 0.00 0.00 0.00 18 998.4
20220630193853 107 337 0.0 9.0 0.00 0.00 0.00 18 998.1
20220630193352 107 341 1.0 5.0 0.00 0.00 0.00 17 998.1
20220630192850 107 307 4.0 6.0 0.00 0.00 0.00 17 998.3
20220630192349 107 305 3.0 8.0 0.00 0.00 0.00 17 998.4
20220630191847 108 313 0.0 7.0 0.00 0.00 0.00 17 998.0
20220630191347 108 331 3.0 7.0 0.00 0.00 0.00 17 998.1
20220630190845 108 351 4.0 6.0 0.00 0.00 0.00 17 998.1
20220630190345 109 12 6.0 8.0 0.00 0.00 0.00 16 998.2
20220630185843 108 322 3.0 8.0 0.00 0.00 0.00 16 998.1
20220630185343 108 336 1.0 5.0 0.00 0.00 0.00 16 998.4
20220630184842 109 313 7.0 11.0 0.00 0.00 0.00 16 998.4
20220630184342 109 62 2.0 10.0 0.00 0.00 0.00 16 998.2
20220630183840 109 305 2.0 6.0 0.00 0.00 0.00 16 998.4
20220630183340 109 265 5.0 10.0 0.00 0.00 0.00 16 998.1
20220630182839 109 260 2.0 13.0 0.00 0.00 0.00 17 998.3
20220630182339 108 320 2.0 6.0 0.00 0.00 0.00 17 998.2
20220630181838 109 352 0.0 6.0 0.00 0.00 0.00 17 998.3
20220630181337 109 303 3.0 10.0 0.00 0.00 0.00 17 998.1
20220630180836 109 343 1.0 7.0 0.00 0.00 0.00 17 998.2
20220630180335 109 330 0.0 7.0 0.00 0.00 0.00 17 998.1
20220630175834 110 345 2.0 6.0 0.00 0.00 0.00 17 998.1
20220630175332 110 355 4.0 9.0 0.00 0.00 0.00 17 998.1
20220630174830 110 285 5.0 8.0 0.00 0.00 0.00 16 998.0
20220630174329 111 335 0.0 7.0 0.00 0.00 0.00 16 998.0
20220630173829 111 31 3.0 9.0 0.00 0.00 0.00 15 997.8
20220630173328 111 2 5.0 9.0 0.00 0.00 0.00 16 997.5
20220630172827 111 283 2.0 7.0 0.00 0.00 0.00 15 997.6
20220630172327 111 119 3.0 7.0 0.00 0.00 0.00 15 997.6
20220630171825 111 353 3.0 8.0 0.00 0.00 0.00 15 997.5
20220630171324 111 311 4.0 7.0 0.00 0.00 0.00 15 997.6
20220630170823 111 301 5.0 9.0 0.00 0.00 0.00 15 997.5
20220630170322 112 318 3.0 6.0 0.00 0.00 0.00 15 997.2
20220630165820 112 21 2.0 6.0 0.00 0.00 0.00 16 997.4
20220630165320 112 358 1.0 9.0 0.00 0.00 0.00 15 997.2
20220630164818 112 26 0.0 3.0 0.00 0.00 0.00 16 997.1
20220630164318 112 53 5.0 11.0 0.00 0.00 0.00 15 997.0
20220630163817 112 16 1.0 7.0 0.00 0.00 0.00 15 997.1
20220630163317 112 18 2.0 3.0 0.00 0.00 0.00 16 997.0
20220630162816 112 2 3.0 11.0 0.00 0.00 0.00 15 997.2
20220630162315 112 14 5.0 9.0 0.00 0.00 0.00 15 997.1
20220630161816 113 5 1.0 7.0 0.00 0.00 0.00 16 997.1
20220630161314 113 352 1.0 2.0 0.00 0.00 0.00 16 997.1
20220630160813 113 353 5.0 9.0 0.00 0.00 0.00 16 996.9
20220630160312 113 326 3.0 5.0 0.00 0.00 0.00 16 996.9
20220630155812 113 299 5.0 11.0 0.00 0.00 0.00 15 996.7
20220630155311 113 342 2.0 3.0 0.00 0.00 0.00 16 996.7
20220630154810 113 313 1.0 5.0 0.00 0.00 0.00 16 996.8
20220630154309 113 328 0.0 8.0 0.00 0.00 0.00 16 996.9
20220630153807 114 10 0.0 10.0 0.00 0.00 0.00 15 996.7
20220630153307 114 248 1.0 7.0 0.00 0.00 0.00 16 996.7
20220630152807 114 340 4.0 7.0 0.00 0.00 0.00 15 996.4
20220630152306 114 337 3.0 7.0 0.00 0.00 0.00 16 996.5
20220630151806 114 36 4.0 11.0 0.00 0.00 0.00 15 996.5
20220630151306 114 21 1.0 11.0 0.00 0.00 0.00 16 996.2
20220630150804 114 337 7.0 15.0 0.00 0.00 0.00 15 996.5
20220630150303 114 89 5.0 11.0 0.00 0.00 0.00 15 996.5
20220630145803 114 340 5.0 8.0 0.00 0.00 0.00 15 996.3
20220630145301 115 11 5.0 11.0 0.00 0.00 0.00 15 996.1
20220630144801 115 80 5.0 8.0 0.00 0.00 0.00 15 996.2
20220630144300 115 330 2.0 9.0 0.00 0.00 0.00 15 996.1
20220630143759 115 347 6.0 16.0 0.00 0.00 0.00 14 996.1
20220630143258 115 2 4.0 8.0 0.00 0.00 0.00 15 996.0
20220630142757 115 7 6.0 9.0 0.00 0.00 0.00 15 995.9
20220630142256 116 339 4.0 7.0 0.00 0.00 0.00 15 996.0
20220630141754 116 7 2.0 13.0 0.00 0.00 0.00 14 995.9
20220630141253 116 4 4.0 8.0 0.00 0.00 0.00 14 996.0
20220630140752 116 308 11.0 13.0 0.00 0.00 0.00 13 996.1
20220630140251 116 323 2.0 11.0 0.00 0.00 0.00 14 996.0
20220630135750 116 315 9.0 14.0 0.00 0.00 0.00 13 996.0
20220630135249 117 279 3.0 10.0 0.00 0.00 0.00 14 995.9
20220630134748 117 12 2.0 10.0 0.00 0.00 0.00 14 995.8
20220630134247 117 20 6.0 8.0 0.00 0.00 0.00 14 996.0
20220630133745 117 5 5.0 10.0 0.00 0.00 0.00 14 996.1
20220630133245 117 291 3.0 13.0 0.00 0.00 0.00 13 995.9
20220630132744 117 29 2.0 11.0 0.00 0.00 0.00 14 996.0
20220630132244 118 359 5.0 10.0 0.00 0.00 0.00 12 996.0
20220630131744 118 16 2.0 11.0 0.00 0.00 0.00 13 996.0
20220630131243 118 46 4.0 10.0 0.00 0.00 0.00 13 995.6
20220630130742 118 326 3.0 7.0 0.00 0.00 0.00 12 995.8
20220630130241 118 350 3.0 9.0 0.00 0.00 0.00 13 995.9
20220630125740 118 9 4.0 16.0 0.00 0.00 0.00 13 995.8
20220630125238 118 359 2.0 13.0 0.00 0.00 0.00 13 995.8
20220630124737 118 359 6.0 18.0 0.00 0.00 0.00 13 995.9
20220630124236 118 328 8.0 14.0 0.00 0.00 0.00 13 995.9
20220630123735 118 339 4.0 9.0 0.00 0.00 0.00 13 996.2
20220630123234 118 359 5.0 16.0 0.00 0.00 0.00 13 995.9
20220630122733 118 286 7.0 14.0 0.00 0.00 0.00 13 996.1
20220630122233 118 27 3.0 10.0 0.00 0.00 0.00 13 995.9
20220630121731 118 49 6.0 8.0 0.00 0.00 0.00 13 996.0
20220630121230 118 21 4.0 15.0 0.00 0.00 0.00 13 995.8
20220630120729 118 30 5.0 11.0 0.00 0.00 0.00 13 996.0
20220630120228 118 280 3.0 11.0 0.00 0.00 0.00 13 995.9
20220630115727 118 226 5.0 10.0 0.00 0.00 0.00 13 996.0
20220630115225 118 285 8.0 13.0 0.00 0.00 0.00 14 996.2
20220630114725 118 4 8.0 11.0 0.00 0.00 0.00 14 996.1
20220630114223 118 314 6.0 13.0 0.00 0.00 0.00 13 996.1
20220630113721 118 292 6.0 14.0 0.00 0.00 0.00 13 996.2
20220630113222 118 337 10.0 11.0 0.00 0.00 0.00 13 996.2
20220630112721 118 307 5.0 10.0 0.00 0.00 0.00 13 996.3
20220630112219 118 4 9.0 11.0 0.00 0.00 0.00 14 996.3
20220630111718 118 68 7.0 18.0 0.00 0.00 0.00 13 996.3
20220630111218 118 326 8.0 13.0 0.00 0.00 0.00 14 996.3
20220630110717 118 42 3.0 15.0 0.00 0.00 0.00 13 996.4
20220630110216 118 93 7.0 15.0 0.00 0.00 0.00 13 996.5
20220630105715 118 56 5.0 16.0 0.00 0.00 0.00 12 996.5
20220630105213 118 1 6.0 13.0 0.00 0.00 0.00 13 996.5
20220630104711 118 308 8.0 16.0 0.00 0.00 0.00 13 996.6
20220630104210 118 240 5.0 13.0 0.00 0.00 0.00 13 996.6
20220630103709 118 313 7.0 16.0 0.00 0.00 0.00 13 996.5
20220630103209 118 25 7.0 13.0 0.00 0.00 0.00 13 996.5
20220630102708 118 20 2.0 14.0 0.00 0.00 0.00 13 996.8
20220630102207 119 338 6.0 9.0 0.00 0.00 0.00 13 997.0
20220630101705 119 29 1.0 7.0 0.00 0.00 0.00 14 996.9
20220630101204 118 6 6.0 14.0 0.00 0.00 0.00 13 997.1
20220630100704 118 63 2.0 16.0 0.00 0.00 0.00 13 997.1
20220630100203 118 34 6.0 10.0 0.00 0.00 0.00 13 997.1
20220630095701 118 286 14.0 20.0 0.00 0.00 0.00 13 997.0
20220630095202 118 344 6.0 9.0 0.00 0.00 0.00 14 997.2
20220630094701 117 350 3.0 14.0 0.00 0.00 0.00 14 997.2
20220630094200 117 3 7.0 11.0 0.00 0.00 0.00 14 997.1
20220630093658 117 4 7.0 18.0 0.00 0.00 0.00 13 996.9
20220630093157 117 51 5.0 8.0 0.00 0.00 0.00 14 997.2
20220630092657 117 307 6.0 17.0 0.00 0.00 0.00 14 997.4
20220630092158 116 19 5.0 10.0 0.00 0.00 0.00 14 997.4
20220630091657 116 341 2.0 17.0 0.00 0.00 0.00 15 997.3
20220630091156 116 28 5.0 10.0 0.00 0.00 0.00 14 997.6
20220630090656 116 150 2.0 14.0 0.00 0.00 0.00 15 997.3
20220630090155 116 350 5.0 20.0 0.00 0.00 0.00 14 997.7
20220630085655 116 319 7.0 15.0 0.00 0.00 0.00 14 997.6
20220630085154 117 72 2.0 9.0 0.00 0.00 0.00 14 997.8
20220630084653 115 331 4.0 9.0 0.00 0.00 0.00 15 997.6
20220630084153 115 7 10.0 18.0 0.00 0.00 0.00 15 997.8
20220630083652 116 329 8.0 22.0 0.00 0.00 0.00 14 998.0
20220630083152 115 1 4.0 16.0 0.00 0.00 0.00 15 997.7
20220630082651 114 58 3.0 16.0 0.00 0.00 0.00 15 998.3
20220630082150 114 9 8.0 20.0 0.00 0.00 0.00 15 998.2
20220630081648 114 72 2.0 8.0 0.00 0.00 0.00 15 998.2
20220630081147 114 332 8.0 22.0 0.00 0.00 0.00 14 998.4
20220630080647 114 358 9.0 13.0 0.00 0.00 0.00 15 998.2
20220630080146 114 17 6.0 14.0 0.00 0.00 0.00 14 998.2
20220630075645 114 340 7.0 13.0 0.00 0.00 0.00 14 998.4
20220630075144 113 0 4.0 15.0 0.00 0.00 0.00 14 998.5
20220630074643 113 13 5.0 15.0 0.00 0.00 0.00 14 998.4
20220630074142 112 328 2.0 16.0 0.00 0.00 0.00 14 998.4
20220630073641 112 35 5.0 11.0 0.00 0.00 0.00 14 998.6
20220630073140 112 25 7.0 16.0 0.00 0.00 0.00 14 998.3
20220630072640 112 294 8.0 17.0 0.00 0.00 0.00 14 998.5
20220630072139 112 33 5.0 16.0 0.00 0.00 0.00 14 998.5
20220630071638 112 29 1.0 8.0 0.00 0.00 0.00 14 998.4
20220630071136 111 287 5.0 13.0 0.00 0.00 0.00 14 998.7
20220630070635 111 331 9.0 13.0 0.00 0.00 0.00 14 998.6
20220630070135 110 325 6.0 11.0 0.00 0.00 0.00 14 998.5
20220630065633 110 325 9.0 16.0 0.00 0.00 0.00 15 998.6
20220630065132 110 352 3.0 9.0 0.00 0.00 0.00 16 998.5
20220630064631 110 25 5.0 10.0 0.00 0.00 0.00 16 998.7
20220630064130 109 350 4.0 10.0 0.00 0.00 0.00 16 998.5
20220630063629 109 305 7.0 17.0 0.00 0.00 0.00 16 998.3
20220630063128 108 286 2.0 11.0 0.00 0.00 0.00 16 998.5
20220630062627 108 5 9.0 10.0 0.00 0.00 0.00 16 998.5
20220630062126 108 22 2.0 8.0 0.00 0.00 0.00 17 998.6
20220630061624 107 281 2.0 17.0 0.00 0.00 0.00 16 998.7
20220630061123 107 34 4.0 13.0 0.00 0.00 0.00 17 998.3
20220630060624 107 350 7.0 11.0 0.00 0.00 0.00 17 998.6
20220630060122 107 347 3.0 13.0 0.00 0.00 0.00 17 998.5
20220630055621 105 49 2.0 10.0 0.00 0.00 0.00 17 998.5
20220630055119 106 309 7.0 10.0 0.00 0.00 0.00 18 998.5
20220630054618 105 348 6.0 11.0 0.00 0.00 0.00 18 998.5
20220630054117 105 351 9.0 13.0 0.00 0.00 0.00 18 998.5
20220630053616 105 22 4.0 9.0 0.00 0.00 0.00 18 998.4
20220630053117 104 356 6.0 10.0 0.00 0.00 0.00 18 998.4
20220630052615 104 269 7.0 13.0 0.00 0.00 0.00 18 998.5
20220630052115 104 290 7.0 10.0 0.00 0.00 0.00 19 998.6
20220630051613 103 329 7.0 10.0 0.00 0.00 0.00 19 998.7
20220630051113 103 12 7.0 11.0 0.00 0.00 0.00 20 998.8